Content
SEND FEEDBACK

Daily
Averages
Monthly
Summary
United States of America

POTTS JUNCTION, GUAM


Home > North America > United States > Guam
Elevation: 110 meters     Latitude: 13 33N     Longitude: 144 50E

WEATHER
 
SELECT A DAY
Number of Records: 214,811;   Date Range: 1/1/95 - 11/22/14
 
SHARE

PRINT THIS DATA

[ ← Previous Day ]
WEATHER ALMANAC - 27 JANUARY, 2013
[ Next Day → ]
[ °F ]   °C
Weather ElementAverageHighLow
Temperature25.8 °C29.4 °C (1:54 pm)22.8 °C (3:54 am)
Dewpoint18.4 °C19.4 °C (1:54 am)17.2 °C (1:54 pm)
Humidity64.2 %79 % (3:54 am)48 % (1:54 pm)
Barometer1013.2 hPa1015.2 hPa (8:54 am)1011.5 hPa (2:54 pm)
Wind Speed20.3 km/h35.2 km/h (1:54 pm)
Wind Gust38.9 km/h (4:54 pm)
Weather ElementAverage
Visibility16.1 km
Wind DirectionENE (53.9 °)

Weather ElementTotal
Precipitation---
Cooling Degree Days7.8 (Base 18.3)
Growing Degree Days16.1 (Base 10)
Averaged from 23 records on 27 January, 2013
WEATHER CONDITIONS BREAKOUT
WIND DIRECTION BREAKOUT
WEATHER BY HOUR - 27 JANUARY, 2013
[ °F ]   °C
Local TimeTemperatureDewpointHumidityBarometerVisibilityWind DirectionWind SpeedGust SpeedPrecipitationEventsConditions
1:54 AM23.9 °C19.4 °C76 %1013.2 hPa16.1 kmENE (60°)11.1 km/hMostly Cloudy
2:54 AM23.9 °C18.9 °C73 %1012.9 hPa16.1 kmENE (60°)13 km/hClear
3:54 AM22.8 °C18.9 °C79 %1012.9 hPa16.1 kmNE (50°)11.1 km/hClear
4:54 AM23.9 °C18.9 °C73 %1013.2 hPa16.1 kmENE (60°)9.3 km/hMostly Cloudy
5:54 AM23.3 °C18.9 °C76 %1013.5 hPa16.1 kmENE (60°)13 km/hScattered Clouds
6:54 AM23.9 °C18.3 °C71 %1013.9 hPa16.1 kmNE (50°)14.8 km/hMostly Cloudy
7:54 AM25 °C17.8 °C64 %1014.9 hPa16.1 kmNE (50°)14.8 km/hClear
8:54 AM26.7 °C18.3 °C60 %1015.2 hPa16.1 kmNE (40°)25.9 km/h35.2 km/hPartly Cloudy
9:54 AM27.2 °C17.8 °C56 %1015.2 hPa16.1 kmNE (50°)24.1 km/h37 km/hScattered Clouds
10:54 AM28.3 °C17.8 °C53 %1014.2 hPa16.1 kmNE (40°)29.6 km/h37 km/hMostly Cloudy
11:54 AM27.2 °C17.8 °C56 %1013.9 hPa16.1 kmNE (40°)29.6 km/hMostly Cloudy
12:54 PM28.3 °C18.3 °C54 %1012.9 hPa16.1 kmENE (60°)25.9 km/h37 km/hMostly Cloudy
1:54 PM29.4 °C17.2 °C48 %1011.9 hPa16.1 kmENE (60°)35.2 km/hScattered Clouds
2:54 PM28.9 °C17.8 °C51 %1011.5 hPa16.1 kmNE (40°)31.5 km/hScattered Clouds
3:54 PM27.8 °C18.9 °C58 %1011.5 hPa16.1 kmNE (50°)27.8 km/h37 km/hScattered Clouds
4:54 PM27.2 °C18.9 °C60 %1011.9 hPa16.1 kmNE (50°)27.8 km/h38.9 km/hPartly Cloudy
5:54 PM26.1 °C18.9 °C64 %1012.2 hPa16.1 kmENE (60°)24.1 km/h37 km/hPartly Cloudy
6:54 PM25.6 °C18.9 °C66 %1012.9 hPa16.1 kmENE (60°)16.7 km/hPartly Cloudy
7:54 PM25 °C18.9 °C69 %1013.2 hPa16.1 kmENE (60°)16.7 km/hPartly Cloudy
8:54 PM25 °C18.3 °C66 %1013.5 hPa16.1 kmENE (60°)16.7 km/hPartly Cloudy
9:54 PM25 °C18.3 °C66 %1013.9 hPa16.1 kmENE (60°)14.8 km/hPartly Cloudy
10:54 PM25 °C18.9 °C69 %1013.5 hPa16.1 kmENE (60°)16.7 km/hPartly Cloudy
11:54 PM25 °C18.9 °C69 %1013.5 hPa16.1 kmENE (60°)14.8 km/hPartly Cloudy
Hourly data recorded from PGUM, located 0 kilometers away from Potts Junction, Guam







STORIES FROM OUR PARTNERS